Location: North Evanston
(42.0634°N, 87.6976°W)
Time: 14:53:00
(UTC+00:00)

Vanguard 3 - Pass Details

Date: 12 May 2026
Orbit: 507 x 3204 km, 33.3° (Epoch: 6 June)

Event Time Altitude Azimuth Distance (km) Brightness Sun altitude
Rises 18:16:46 0° 211° (SSW) 6,504 12.1 65.4°
Reaches altitude 10° 18:21:24 10° 203° (SSW) 5,751 12.0 65.1°
Maximum altitude 18:37:12 36° 146° (SE) 4,341 11.6 63.9°
Drops below altitude 10° 18:52:38 10° 89° (E) 5,669 11.4 62.4°
Sets 18:57:04 0° 81° (E) 6,410 11.5 62.0°
